Theta_e
328 328 330 333 337 338 339 340 340 339 338 339 342 343 344 344 344 344 344 343 343 342 342 342 343 343 344 344 345 346 347 348 348 348 348 348 348 347 346 346 346 345 345 345 345 345 345 345 345 345 345 345 345 345 344 344 344 343 343 343 343 345 345 345 344 344 344 343 343 344 344 344 344 345 346 347 348 348 349 349 348 348 347 347 346 346 345 344 344 344 343 343 343 343 343 342 341 341 341 342 343 338 337
327 328 328 331 334 335 336 337 337 336 334 333 335 339 342 344 344 344 344 343 343 343 343 342 343 343 343 343 344 344 345 346 346 347 347 347 347 347 346 346 345 345 344 344 344 344 344 344 344 344 344 343 343 344 344 344 344 344 343 343 343 343 344 344 344 343 343 343 343 343 343 343 344 345 345 347 348 348 348 348 348 347 347 346 345 345 344 344 343 343 343 343 343 343 342 342 341 342 342 342 343 341 338
325 326 327 329 331 333 334 335 333 332 332 331 332 335 339 342 343 343 343 343 343 343 343 343 343 343 342 342 342 343 343 344 344 345 345 345 346 347 346 345 344 343 343 343 343 343 343 343 343 343 342 341 339 339 341 343 343 343 343 343 343 343 343 343 343 343 343 343 343 343 343 343 343 343 344 345 346 347 347 346 346 344 344 344 344 344 343 343 343 343 342 342 343 343 342 341 339 343 343 343 343 344 340
323 323 324 326 328 330 332 332 331 331 331 330 332 333 335 337 340 341 342 342 343 343 343 343 343 342 342 342 341 341 342 342 342 343 343 343 345 345 345 344 342 341 341 341 340 340 340 340 341 341 340 339 337 338 340 342 342 342 342 342 342 343 343 342 342 342 342 342 342 342 342 342 342 342 343 344 344 344 344 344 344 342 341 342 342 343 343 343 342 342 342 342 342 342 341 341 342 343 343 343 343 345 343
319 319 319 321 324 327 329 330 331 331 330 330 330 331 332 333 335 338 339 340 341 341 341 342 342 342 342 341 341 341 340 339 339 341 341 342 343 343 342 340 338 339 339 340 339 338 338 338 338 338 337 336 336 339 340 340 340 341 341 341 341 341 342 342 342 342 342 342 342 342 342 341 341 342 342 342 343 343 343 342 342 341 340 340 341 342 342 342 342 342 342 342 342 341 341 342 342 342 342 343 343 345 343
317 317 316 316 316 322 326 329 332 332 331 329 329 328 330 332 333 333 334 335 337 338 338 339 340 340 340 340 340 339 337 336 335 338 340 341 341 340 338 335 334 337 339 340 339 338 337 336 336 336 335 334 336 339 339 339 339 339 340 340 340 340 340 340 341 341 341 341 341 341 341 341 341 341 341 341 341 341 341 341 340 340 340 340 340 341 342 342 342 342 341 341 341 342 342 342 341 341 342 342 344 344 342
317 316 316 315 312 316 322 328 332 333 332 331 330 328 329 331 332 329 328 328 330 331 333 334 335 336 336 336 337 337 335 333 332 335 337 338 338 336 336 337 337 340 340 340 337 337 336 336 336 335 334 334 337 338 339 338 338 339 339 339 339 339 339 339 340 340 340 340 340 340 340 340 341 341 340 340 340 340 339 339 340 341 341 340 340 341 342 342 342 342 341 340 341 342 342 341 340 340 341 342 342 343 341
318 317 316 315 314 314 316 322 331 334 334 333 333 329 328 329 330 328 326 326 326 327 329 330 330 331 332 332 333 334 334 333 331 332 333 335 334 333 336 341 342 342 340 338 336 336 337 337 337 335 335 336 338 338 338 338 338 338 338 338 338 338 339 339 339 339 338 339 339 339 339 340 340 340 340 339 340 340 339 339 342 342 342 340 339 340 341 341 341 341 342 342 343 343 342 341 340 340 341 341 341 341 341
321 320 319 318 317 316 316 318 327 332 334 334 334 331 329 328 328 328 327 326 325 326 327 328 328 329 329 328 328 329 331 332 331 331 333 335 334 334 338 341 343 341 339 337 337 336 336 336 336 335 336 337 338 338 338 338 338 338 338 338 338 338 338 338 338 338 338 338 338 338 339 339 339 339 339 339 339 340 339 340 342 343 342 341 340 341 341 340 340 342 344 345 345 344 342 341 339 339 340 341 341 341 341
322 321 320 319 320 319 318 319 324 328 331 333 333 332 331 330 329 329 329 328 327 327 327 327 326 326 326 325 325 325 326 327 328 330 334 336 336 337 340 341 339 339 338 338 337 336 334 334 334 335 336 337 338 337 337 338 338 338 338 338 338 338 338 337 337 337 337 337 338 338 338 338 339 339 338 338 339 339 340 340 342 344 343 342 341 343 343 342 343 345 345 345 345 343 342 341 339 339 339 340 340 340 340
320 320 320 320 321 319 318 319 320 324 327 330 332 333 333 333 332 332 331 331 329 328 328 328 326 324 323 323 323 323 324 326 327 329 332 335 336 340 341 339 336 337 337 337 337 335 334 334 335 336 338 338 338 338 338 338 339 339 338 338 338 338 337 337 337 336 336 336 336 337 338 338 338 338 337 337 339 339 340 341 341 342 341 341 342 343 344 345 346 346 346 345 345 343 342 341 340 340 340 340 339 340 340
317 320 321 321 320 319 318 317 318 321 323 326 329 331 332 333 334 334 333 332 330 328 328 328 326 324 322 321 321 323 324 325 327 328 330 332 335 339 339 337 335 336 337 337 337 336 335 336 337 339 339 339 339 339 339 339 339 340 340 339 339 339 338 337 338 338 338 336 335 336 337 337 338 338 338 339 339 340 341 341 340 339 338 339 340 341 342 342 344 345 345 345 345 343 343 343 341 341 340 339 339 340 340
313 318 321 322 321 320 319 318 318 319 320 322 324 327 329 331 334 335 334 332 330 327 327 326 325 323 322 321 322 324 325 325 325 326 328 329 332 334 334 334 334 335 336 336 336 336 337 338 339 338 337 336 336 336 337 337 338 338 338 338 337 336 337 337 336 338 339 338 336 336 335 336 336 337 338 340 341 340 339 339 338 338 338 338 338 339 340 340 341 341 342 343 344 343 343 342 342 342 340 339 338 339 340
308 316 320 321 320 321 320 320 319 319 319 320 320 324 327 329 333 334 332 331 329 326 326 325 324 322 322 323 324 325 325 325 325 324 324 325 327 330 332 333 332 334 335 335 336 337 338 338 338 336 335 335 335 335 335 336 337 336 335 335 335 334 334 334 334 336 338 339 337 337 336 336 337 338 339 339 339 339 338 338 338 337 337 338 339 339 339 338 338 338 339 340 341 342 343 341 341 339 339 338 337 338 339
305 313 317 319 319 319 319 319 320 319 319 320 319 322 325 327 331 332 331 329 328 326 325 325 325 324 324 324 324 324 324 324 323 322 322 322 323 326 329 333 335 335 335 335 336 336 336 336 335 334 334 335 335 336 335 335 335 334 333 333 333 333 332 332 332 333 336 337 338 337 337 337 338 337 337 337 338 338 338 338 338 337 337 337 339 339 338 337 337 337 339 340 340 340 340 340 339 338 338 338 338 338 339
303 309 315 319 318 318 318 318 319 318 319 319 321 321 322 323 325 330 331 329 327 326 325 325 324 325 324 323 323 323 323 322 321 321 321 321 323 324 325 329 332 336 336 336 336 335 334 333 333 333 333 334 334 335 334 333 331 332 332 331 331 331 331 331 331 331 333 335 336 337 337 337 337 336 336 336 337 337 337 337 337 337 336 336 336 337 337 336 336 337 338 339 340 339 338 338 338 337 337 336 337 338 339
303 305 311 318 319 318 318 318 319 318 318 319 320 320 321 321 322 327 329 328 327 326 325 325 324 324 324 323 323 322 321 321 321 321 321 321 323 324 325 328 331 336 337 337 336 334 333 332 332 332 333 333 331 330 330 331 331 331 331 330 331 330 331 331 330 330 331 331 333 334 334 334 335 335 335 335 336 335 335 335 335 335 336 336 335 335 335 335 335 336 338 339 338 337 336 336 336 335 335 335 336 337 338
304 304 310 317 319 319 319 320 320 319 318 318 319 319 319 319 320 325 327 327 327 326 325 324 324 324 323 322 322 321 320 320 321 322 322 321 320 322 325 329 333 336 338 337 337 335 334 334 335 334 334 332 330 326 325 326 326 330 331 331 330 329 329 329 330 330 330 330 331 331 331 332 332 333 334 334 335 335 334 332 331 332 334 336 335 335 335 335 336 336 337 337 337 337 336 336 335 335 335 335 336 336 338
304 306 311 317 320 319 318 318 319 317 316 316 318 318 317 317 320 323 325 326 326 325 324 324 324 323 322 321 320 319 320 321 321 321 321 321 319 320 323 327 331 332 333 335 337 336 335 335 334 333 333 332 331 328 326 325 325 326 328 330 330 330 329 329 330 330 330 330 330 331 331 331 331 330 330 332 334 334 332 330 329 330 331 333 335 336 336 336 337 336 336 336 337 336 336 336 336 336 335 335 336 335 337
307 310 314 318 319 318 317 316 316 315 315 315 316 316 316 316 317 320 322 324 325 325 324 324 324 322 321 320 319 320 321 321 321 321 321 320 319 319 320 322 323 325 326 329 332 333 333 332 329 330 330 330 330 328 327 326 325 325 326 327 329 331 330 330 331 331 330 330 329 330 330 331 331 330 329 329 331 332 330 328 328 329 329 330 332 334 335 336 336 335 335 335 336 336 336 336 335 335 335 335 335 335 336
312 314 316 317 316 316 315 314 313 314 315 315 316 315 315 316 315 316 316 319 323 323 323 323 322 321 320 319 319 321 321 321 320 321 321 320 319 319 320 320 322 321 321 323 326 328 328 327 326 325 324 324 324 324 324 325 325 324 324 326 327 327 327 328 330 331 332 331 331 330 330 329 329 330 329 329 329 329 328 328 328 328 328 328 329 330 332 333 333 334 334 335 335 336 336 336 336 335 334 335 335 335 335
316 315 315 315 314 315 315 315 314 315 316 316 315 315 315 315 315 314 314 315 318 319 320 320 321 320 319 319 320 320 320 320 320 319 318 317 317 318 318 319 320 321 321 321 322 323 323 325 325 324 322 322 321 322 322 322 323 323 323 325 325 326 326 325 327 329 330 332 332 331 330 330 329 329 329 329 329 328 328 328 328 328 328 328 328 328 329 329 330 330 332 334 336 337 337 336 336 336 335 334 335 335 335
314 313 313 313 314 314 315 314 314 315 315 315 315 315 315 315 315 315 315 315 316 316 317 317 319 319 320 320 320 320 319 319 318 317 316 315 316 316 316 317 316 319 319 320 319 319 321 322 323 324 324 323 322 322 321 321 321 322 322 323 324 325 325 324 325 326 327 328 330 330 330 330 330 330 329 329 329 328 328 328 328 328 328 328 328 327 328 327 327 328 329 331 335 336 335 335 336 335 335 335 335 335 335
312 312 313 313 314 314 314 315 314 314 315 315 315 314 314 314 313 314 314 315 315 315 315 315 316 318 319 319 319 319 318 318 317 316 315 314 314 315 315 315 315 316 318 318 317 317 318 319 321 323 323 323 322 320 320 320 319 319 321 322 323 324 324 324 324 324 324 325 326 326 327 328 329 329 329 329 329 329 328 328 329 329 329 328 328 328 328 327 326 326 327 329 332 332 333 332 333 335 335 335 335 335 336
309 311 312 313 313 313 313 314 313 313 313 313 313 313 313 313 312 313 314 315 316 316 315 313 314 317 318 319 318 318 317 317 316 315 314 314 313 313 314 313 313 314 316 318 318 318 317 318 320 320 322 322 321 320 320 319 317 318 319 320 321 322 322 321 321 322 323 324 323 324 324 324 325 325 327 328 328 328 328 328 328 329 329 329 328 328 328 328 327 326 327 328 330 330 331 330 331 332 334 335 334 335 335
307 309 310 311 312 312 312 312 312 312 312 312 312 312 312 312 312 312 313 314 315 315 315 314 315 316 317 318 318 317 317 316 316 315 314 314 313 313 313 312 313 313 314 315 317 317 316 317 318 319 320 320 320 319 318 318 318 319 319 319 318 321 321 320 320 322 324 326 326 327 327 326 325 323 323 324 325 326 327 327 327 328 328 328 328 328 329 329 328 326 327 328 328 328 329 330 330 331 333 333 333 334 334
305 306 307 309 310 311 311 311 312 311 312 312 312 312 312 311 312 312 312 313 314 315 315 315 317 317 317 318 317 317 317 316 316 315 314 314 313 312 312 312 312 312 312 313 313 315 315 315 315 317 317 317 316 316 315 315 316 318 318 318 316 318 320 321 321 323 325 327 328 328 328 328 328 326 325 324 324 325 325 324 324 325 326 326 326 327 328 328 327 327 327 327 326 326 327 329 329 330 332 332 332 333 334
304 304 305 306 307 307 308 309 311 311 311 311 311 311 310 310 311 311 311 312 313 314 315 315 317 317 317 316 316 316 316 316 315 315 314 314 313 312 312 312 312 312 312 311 312 312 313 314 314 315 315 315 315 313 313 313 313 314 315 316 317 318 319 321 321 322 324 325 327 327 327 327 327 327 327 326 326 326 325 323 321 323 323 324 324 325 325 326 325 326 326 326 326 326 328 328 328 329 330 331 332 332 333
303 303 303 302 304 304 304 305 307 307 308 309 309 309 309 309 309 310 310 311 311 312 313 313 315 315 315 315 315 315 315 315 315 314 314 313 314 312 312 311 312 311 311 310 310 311 312 312 312 313 314 315 314 313 313 312 313 313 313 314 317 319 319 320 318 321 321 322 324 324 324 326 327 326 327 327 327 326 327 325 322 322 323 324 324 324 324 324 325 325 326 326 327 328 328 328 327 329 329 330 331 331 331
301 303 302 300 301 302 302 302 302 303 304 306 307 308 308 308 308 308 309 310 311 311 311 312 313 313 313 313 313 313 313 313 313 314 313 313 313 312 311 311 311 310 310 310 310 310 310 311 311 312 313 313 313 312 312 312 313 312 312 312 315 317 318 318 316 319 320 320 321 320 321 322 323 324 325 327 327 327 327 327 325 325 326 326 327 325 324 324 325 326 327 327 328 329 329 329 329 329 329 330 330 330 331
301 301 300 299 299 300 300 300 300 301 302 303 303 305 307 307 307 306 307 307 309 310 310 310 312 312 312 312 312 312 312 312 312 313 313 312 312 312 311 310 310 309 308 308 309 309 309 310 310 310 311 311 311 311 311 311 311 311 312 313 313 314 316 316 316 318 318 318 317 316 318 319 319 321 322 324 324 326 326 326 326 327 328 328 328 327 326 326 327 328 329 329 329 329 329 329 328 328 329 329 330 330 330
299 300 300 299 298 299 299 299 300 300 301 301 301 303 304 306 306 305 305 305 306 307 308 309 310 311 311 310 311 311 311 311 312 312 312 312 311 311 310 309 310 308 307 307 307 307 307 308 309 309 309 309 309 309 309 309 309 310 311 312 313 313 314 314 314 316 317 316 313 313 315 317 318 318 318 318 320 322 324 324 323 324 326 327 327 327 326 326 327 328 329 329 329 328 328 328 328 328 328 328 329 329 330
297 299 299 299 298 298 298 299 300 300 300 300 300 301 301 302 304 304 304 304 304 306 307 308 309 309 310 310 310 310 310 311 311 311 311 311 310 310 309 309 309 307 306 306 306 306 306 307 308 308 307 307 307 308 308 308 308 309 310 311 312 313 313 312 313 314 315 315 314 313 313 314 317 317 317 315 316 318 319 320 320 320 321 322 323 324 323 323 323 325 326 327 328 328 328 327 327 327 327 327 328 328 329
297 298 299 300 299 298 298 299 299 300 300 300 300 300 300 301 302 303 303 304 304 306 307 307 307 309 310 311 311 311 311 311 311 310 310 310 310 308 308 308 308 307 306 305 305 305 305 306 307 307 307 307 306 307 307 307 307 308 309 310 311 311 311 311 311 311 312 312 313 314 313 312 313 315 316 317 316 317 317 317 317 317 318 319 320 322 322 321 321 322 323 325 327 327 328 328 327 327 327 326 327 328 328
296 297 298 299 300 298 297 298 298 299 300 300 300 300 300 300 300 301 302 302 303 304 305 306 307 309 310 311 311 312 312 311 310 310 310 309 308 307 307 307 308 307 306 305 305 305 305 305 306 306 307 306 306 306 306 306 306 307 308 309 310 310 310 309 310 310 310 311 311 312 312 310 310 311 313 314 315 315 315 315 314 314 316 316 317 319 320 320 320 322 323 323 324 326 327 328 328 327 327 327 327 328 328
296 297 297 297 298 297 297 297 298 299 299 300 301 300 300 300 301 301 301 301 302 302 303 305 306 307 309 310 311 311 311 311 310 310 309 307 306 306 306 306 307 306 306 306 305 305 305 305 306 306 306 306 306 305 305 305 305 306 307 308 308 308 308 308 309 309 309 309 310 310 310 309 309 309 309 310 310 311 312 312 311 311 312 313 313 316 317 317 318 321 322 323 323 325 326 327 328 328 328 328 328 328 329
295 296 296 296 297 296 296 297 297 298 299 299 300 300 300 300 300 301 300 300 301 302 302 302 304 305 306 308 309 310 310 310 310 309 308 307 306 307 306 306 306 306 306 306 305 305 305 305 305 306 305 305 306 305 304 305 305 306 307 307 307 307 306 306 307 307 307 308 308 309 308 308 308 308 307 307 307 309 310 309 309 310 310 310 310 312 314 315 316 318 320 322 323 324 325 325 326 327 328 328 328 328 329
294 294 295 295 295 295 295 296 297 297 298 298 298 298 298 297 297 298 298 298 299 298 299 299 301 303 304 305 307 309 309 309 309 308 306 305 305 305 305 305 306 305 305 305 305 304 304 304 304 305 305 305 305 304 304 304 304 305 306 307 306 306 305 305 305 306 306 306 307 307 308 308 309 308 307 306 306 306 307 307 307 308 310 310 309 309 310 311 313 314 316 319 322 324 324 324 325 326 327 327 327 328 329
293 294 294 294 294 294 294 295 297 296 296 296 297 296 295 295 296 296 296 296 296 296 297 298 299 301 302 303 305 306 306 306 306 305 304 304 304 304 304 304 304 304 304 304 304 304 304 304 303 304 305 305 304 304 304 304 305 305 305 306 306 306 305 304 304 304 304 305 306 306 307 308 308 309 308 306 305 304 304 305 305 306 308 309 308 307 306 307 309 309 311 313 316 319 321 323 324 324 325 326 326 327 328
293 293 293 293 293 293 294 294 295 295 295 295 296 295 294 294 295 295 295 295 295 296 297 298 299 301 302 302 302 303 303 303 302 302 302 302 302 302 302 302 303 303 303 303 303 303 303 303 303 303 303 304 304 304 304 304 304 304 304 305 305 305 305 304 304 304 305 305 306 305 306 307 308 308 308 307 305 304 304 304 305 306 307 308 306 305 304 304 305 306 307 308 310 313 316 318 320 322 323 324 324 325 326
292 293 292 292 292 293 293 293 293 294 294 294 294 294 294 295 295 295 295 295 296 297 297 298 300 301 301 300 300 300 300 300 299 299 300 300 299 300 300 301 301 302 302 302 302 302 302 302 303 303 303 303 303 304 304 304 305 304 304 305 305 306 305 304 305 304 305 305 304 304 304 305 307 307 308 308 308 306 305 305 307 308 308 307 304 303 303 303 303 304 304 304 305 307 309 312 315 317 319 321 322 324 325
292 292 292 292 292 292 292 293 293 294 295 295 293 293 294 295 296 295 295 295 296 296 297 298 299 300 300 299 298 298 298 298 299 298 299 299 298 299 299 299 300 301 301 301 301 302 302 302 302 302 302 303 303 303 304 304 304 304 304 304 306 306 305 304 304 303 303 304 305 304 303 304 305 306 307 307 308 307 307 307 308 309 309 308 305 303 302 303 302 302 302 301 302 303 304 306 308 309 313 317 319 322 324
292 292 292 292 292 291 291 292 292 293 295 296 292 292 293 293 294 293 294 294 294 295 296 297 297 298 299 298 297 297 297 297 297 298 298 298 298 298 299 300 299 300 300 301 301 301 302 302 302 301 301 301 302 303 304 304 304 304 304 304 305 304 304 304 304 304 304 304 304 304 304 303 304 305 305 305 305 305 306 306 307 308 308 309 308 305 303 301 300 300 300 299 298 299 300 302 302 303 306 310 315 319 321
292 292 291 291 291 292 291 291 291 292 295 297 294 293 293 295 295 294 293 294 294 294 295 295 296 298 297 297 296 297 297 298 297 297 297 297 298 299 299 300 299 299 300 300 300 301 301 301 301 301 301 301 301 302 302 303 303 303 303 303 303 304 304 304 303 303 303 303 303 303 303 304 304 305 304 303 302 302 302 303 305 306 307 308 309 307 305 303 300 299 299 298 299 298 298 298 299 300 302 305 310 314 317
292 291 291 291 291 291 291 291 291 293 294 294 292 293 294 296 295 294 293 293 293 294 294 294 295 296 297 297 297 297 298 297 297 297 297 297 298 299 299 298 299 299 299 299 299 299 300 300 300 300 300 299 300 300 301 302 302 301 302 303 303 304 304 304 303 302 302 303 302 302 302 302 303 304 303 302 302 301 301 301 303 304 305 306 308 307 306 304 302 300 300 299 298 298 297 297 299 300 300 302 305 308 311
292 291 291 291 291 291 291 291 291 291 292 292 292 293 294 295 294 294 295 294 294 295 295 295 295 296 296 297 296 296 296 296 297 297 298 298 298 298 298 297 298 298 298 298 298 299 299 299 298 298 298 298 299 298 299 299 300 300 300 301 302 303 304 304 304 303 303 302 301 301 302 302 302 303 302 301 302 302 301 301 301 303 304 304 304 306 307 307 305 302 300 298 297 296 296 297 299 299 300 301 303 305 307
291 291 291 291 291 291 291 291 291 291 291 292 292 293 294 294 294 294 294 295 294 294 294 294 294 294 295 295 294 294 294 295 295 296 296 296 296 297 297 297 297 297 297 297 298 298 298 298 298 298 298 297 297 297 297 298 298 299 299 300 301 302 302 303 303 302 302 301 301 301 301 302 301 302 302 302 301 302 302 301 300 301 303 305 305 304 305 306 306 305 304 303 301 299 298 297 298 299 299 300 302 303 305
291 291 291 291 291 291 291 291 291 291 292 292 293 294 293 293 293 293 293 292 292 292 292 291 291 292 292 293 293 293 293 293 294 295 295 296 296 296 297 297 296 296 297 296 297 297 297 297 297 297 297 297 296 296 296 297 297 298 298 299 301 301 302 301 301 301 300 300 300 300 300 300 300 301 302 302 301 302 302 301 300 300 300 302 304 304 304 304 304 305 306 307 306 305 303 301 300 300 299 299 300 302 303
291 291 291 291 291 292 291 291 291 291 292 292 293 294 294 293 293 292 291 291 291 290 290 290 291 291 291 292 292 293 293 294 294 294 295 295 295 296 296 297 296 296 296 296 296 296 296 296 296 296 296 295 295 295 295 295 296 296 297 298 299 300 300 300 299 299 299 299 299 299 299 300 299 300 300 301 302 302 301 301 300 299 300 300 302 303 304 303 303 303 304 305 305 306 305 304 303 302 301 300 300 301 302
291 291 291 291 291 293 293 292 290 291 291 292 292 294 293 293 292 292 291 291 290 291 291 290 290 290 290 290 291 292 292 294 294 294 294 294 294 295 295 296 296 295 295 295 295 295 295 295 295 295 295 295 295 294 294 294 295 295 296 297 298 299 299 298 298 297 297 298 298 298 298 299 299 299 299 300 301 301 301 300 300 300 300 300 300 302 303 304 304 304 303 302 303 303 304 304 305 304 303 302 301 300 300
291 291 290 290 291 292 293 292 290 291 292 292 292 293 294 293 292 291 291 290 290 292 292 291 290 290 289 290 290 292 292 292 292 293 293 293 293 294 295 295 295 295 294 294 294 294 294 294 294 294 294 294 294 293 293 293 294 294 294 295 297 298 297 297 296 296 296 296 296 296 297 297 298 298 298 299 300 300 299 300 300 300 300 300 300 301 302 303 304 304 304 303 303 302 302 303 303 304 304 303 303 302 301
290 291 290 289 290 290 290 291 289 291 292 292 291 292 293 293 292 290 290 291 290 290 291 291 290 290 290 290 291 292 292 292 291 292 292 291 292 292 293 294 294 294 294 293 293 293 293 293 293 293 293 294 294 293 292 292 292 293 293 294 296 296 296 295 295 295 294 294 294 295 295 296 296 297 297 298 298 299 299 300 300 300 299 299 299 300 301 302 303 303 303 303 303 303 303 302 302 302 302 303 303 303 302
290 290 290 289 289 289 289 289 289 290 291 292 290 290 291 292 292 290 290 290 290 289 289 289 291 291 290 290 290 291 291 291 291 291 290 290 290 291 292 292 293 293 293 293 293 292 292 292 292 292 292 293 293 292 292 291 291 291 292 292 294 295 294 293 293 293 293 293 293 293 293 294 295 296 296 297 297 298 299 300 299 299 299 298 299 300 301 302 302 302 303 303 302 302 303 303 303 302 302 301 302 302 302
290 290 290 289 288 288 288 288 288 289 289 290 289 289 289 290 291 290 289 288 288 287 287 287 289 289 289 289 289 289 289 289 290 290 289 289 288 290 291 291 292 292 293 293 293 292 291 291 291 291 291 291 291 291 291 290 290 290 291 292 293 293 292 291 291 291 291 292 292 292 293 293 294 295 296 296 296 297 299 299 299 298 298 298 299 299 300 301 302 302 302 302 302 302 302 302 302 302 301 300 300 300 301
289 289 289 288 287 287 287 287 288 288 288 288 288 288 288 288 288 288 288 287 286 286 286 286 286 286 287 288 288 288 288 289 289 289 289 289 288 289 290 290 291 291 291 292 292 292 291 290 290 290 290 290 290 290 290 290 289 290 290 291 293 292 291 290 290 290 291 291 291 292 292 293 294 294 295 295 296 297 298 298 298 297 297 298 299 299 299 299 300 302 302 302 302 302 302 302 301 301 301 301 300 299 300
289 288 288 287 287 287 287 287 287 288 288 288 288 287 287 287 287 287 287 286 286 285 285 285 285 285 285 285 286 286 286 287 287 287 287 287 288 288 289 289 290 290 291 291 291 291 291 291 290 289 289 289 289 289 289 289 289 289 289 290 291 290 290 289 290 290 290 291 291 291 292 293 293 294 294 294 295 296 296 297 297 297 297 297 298 299 299 298 299 300 301 302 302 302 303 302 302 302 302 302 302 301 301
288 288 287 287 286 286 287 287 287 287 287 287 287 287 287 287 286 286 285 285 285 285 285 284 285 284 284 284 284 285 285 285 285 285 286 286 286 287 288 289 289 290 290 290 290 291 291 290 290 289 289 289 289 289 289 288 288 289 289 289 289 289 289 289 289 290 290 290 291 291 292 292 293 293 294 294 294 295 295 296 297 297 298 297 297 298 298 298 299 300 300 301 302 302 303 303 304 303 303 303 303 303 303
288 288 287 287 286 286 286 286 287 287 287 287 287 287 287 286 286 285 285 285 285 284 284 284 284 284 284 284 284 284 285 285 286 286 286 285 286 287 288 288 288 288 289 289 289 290 289 289 289 288 288 288 288 288 288 288 288 288 289 289 288 288 288 288 288 289 289 289 290 291 291 292 292 292 293 293 293 294 294 295 296 297 297 297 296 297 297 298 298 299 300 300 301 301 302 302 303 304 304 304 305 305 304
288 287 287 286 286 286 286 286 286 286 287 287 287 287 286 286 285 285 285 284 284 284 284 284 284 284 284 284 284 284 284 285 286 286 286 285 285 285 286 287 287 287 288 288 288 288 288 288 287 287 287 287 288 288 287 287 288 288 288 288 288 287 287 287 288 288 288 289 290 290 291 291 291 291 292 292 292 293 294 295 295 295 295 295 295 296 296 297 297 298 299 300 300 301 301 301 303 304 304 304 305 305 305
288 287 286 286 286 286 286 286 286 286 286 286 286 286 286 285 285 284 284 284 284 284 284 284 284 284 283 284 285 285 284 285 286 286 286 286 285 285 285 286 286 286 286 286 287 286 287 287 287 286 286 286 287 287 286 286 286 286 286 287 286 286 286 287 287 287 288 288 289 290 290 290 290 291 291 291 292 293 294 294 293 294 294 294 295 295 295 296 297 297 298 298 299 299 300 301 302 303 303 304 304 304 304
288 287 286 286 285 285 285 286 286 286 286 286 286 286 285 285 284 284 284 284 284 284 284 284 284 284 284 284 285 285 285 285 285 285 286 286 285 285 286 286 286 286 286 286 286 285 286 286 286 285 285 285 285 285 285 285 285 285 285 285 286 286 286 287 287 287 287 288 288 289 289 290 290 290 290 291 292 293 293 293 293 294 294 293 294 294 295 295 296 296 296 297 297 299 299 300 301 302 303 303 303 303 304
Wind_Speed
3 3 4 4 5 4 4 4 3 3 3 4 6 7 7 8 7 7 7 7 6 6 5 5 5 4 4 5 5 5 5 5 5 5 5 6 6 7 8 9 9 9 9 9 9 9 8 8 8 8 7 6 6 7 8 10 10 10 10 9 8 8 9 10 11 11 10 9 7 4 2 1 1 3 5 7 8 9 10 11 12 12 12 11 10 10 10 9 9 8 8 9 9 9 9 8 7 4 3 2 2 4 6
4 3 4 4 4 4 4 4 3 2 2 2 3 5 6 6 6 6 6 6 6 6 5 5 5 5 5 5 5 5 5 5 5 4 4 4 5 6 7 8 9 9 9 9 9 8 8 8 8 9 8 7 6 6 7 9 10 11 12 12 11 10 10 10 11 12 11 10 9 7 4 2 1 2 3 5 6 8 9 10 11 11 11 11 10 10 10 9 9 9 9 9 10 10 10 8 6 4 3 3 2 3 5
3 3 3 3 3 4 4 4 3 2 2 2 2 3 4 4 5 4 5 5 5 5 5 5 5 5 5 5 5 5 5 5 5 4 4 4 4 5 6 7 8 8 8 8 8 8 8 8 9 9 9 8 7 5 5 7 8 10 11 12 13 12 12 11 11 11 12 11 11 9 7 4 3 2 2 3 4 6 7 8 8 9 9 9 10 10 10 9 9 9 9 9 10 11 10 8 5 4 4 4 3 3 3
3 2 2 2 2 3 3 3 3 2 2 2 2 2 2 3 3 3 3 3 4 4 4 4 4 5 5 5 5 4 4 4 4 5 5 5 4 5 5 6 6 6 6 6 6 6 7 7 9 8 8 7 6 6 6 6 5 6 8 10 11 13 13 12 11 11 11 11 11 10 8 7 5 3 3 2 2 3 4 5 6 6 7 7 9 9 10 10 9 9 9 9 10 9 7 5 4 4 4 4 4 3 3
3 2 1 1 1 2 2 2 2 3 2 2 2 2 2 2 2 2 2 2 2 2 3 3 4 4 4 5 4 4 4 3 4 5 5 6 5 5 5 4 4 4 5 5 5 5 5 6 7 7 6 5 5 6 6 5 3 3 4 6 8 10 11 12 12 11 11 11 10 10 9 8 6 5 4 3 2 1 1 2 3 5 6 8 9 9 10 10 10 9 8 8 8 6 4 3 4 4 4 4 4 4 3
2 2 1 1 1 1 2 2 2 3 3 2 2 2 2 2 2 2 1 1 1 1 2 2 3 3 4 4 4 4 4 3 3 4 5 6 6 5 4 3 3 4 4 5 5 4 5 5 6 5 4 3 4 5 5 4 2 1 1 2 3 5 7 9 10 10 10 10 10 9 8 8 7 6 4 3 2 1 1 0 1 4 7 9 10 10 10 10 10 9 7 6 6 4 3 4 4 5 4 4 4 4 4
2 1 1 1 1 1 1 2 2 2 2 2 2 2 2 2 2 1 1 0 0 1 1 1 1 2 3 3 3 3 3 3 3 3 5 6 6 4 3 2 3 4 5 5 5 5 5 5 4 4 3 3 3 4 3 2 1 1 1 1 1 1 2 4 5 7 7 8 8 7 7 6 6 5 4 4 3 2 2 2 2 2 5 8 9 10 10 9 9 7 6 5 3 3 3 4 5 5 4 4 4 5 4
3 2 1 1 1 1 0 1 1 2 2 2 2 2 2 2 1 1 1 1 1 1 0 0 1 1 2 2 2 2 3 3 3 3 4 4 4 3 3 2 3 5 6 6 6 5 5 5 4 4 4 3 4 3 2 2 2 2 2 2 2 2 2 1 1 2 3 4 5 4 4 4 4 4 4 4 3 2 2 2 2 1 2 5 7 8 8 7 6 5 4 3 3 3 3 4 4 4 4 3 4 5 4
4 4 3 2 2 2 2 1 0 1 1 1 1 1 1 1 1 1 1 1 1 0 0 1 1 1 2 1 1 1 2 3 3 3 3 3 3 3 3 3 4 5 6 6 6 6 6 5 5 4 4 4 4 3 2 1 2 3 3 4 4 4 3 2 2 1 1 0 2 2 3 3 3 3 3 4 3 2 1 1 1 2 3 4 5 6 5 4 4 3 3 3 3 3 3 4 4 4 3 3 4 4 4
5 6 5 3 2 2 2 2 1 1 1 1 0 0 1 1 1 1 1 1 1 0 1 1 1 2 2 2 1 1 1 2 3 3 3 3 3 3 3 3 4 5 6 6 6 6 6 6 5 4 4 4 3 3 2 1 2 3 4 4 4 4 3 3 2 2 1 1 1 2 3 3 4 4 4 4 3 2 2 0 2 2 2 4 5 5 4 2 2 2 2 2 3 3 3 4 3 3 3 3 4 4 4
5 6 6 5 3 1 1 2 2 2 2 2 2 1 1 1 1 1 1 1 0 1 1 1 1 2 2 2 2 2 2 2 2 3 3 3 3 3 3 4 4 5 5 5 5 5 5 5 4 3 2 2 2 2 2 1 1 2 3 3 3 3 3 2 3 3 2 1 2 2 3 4 5 5 4 3 3 2 2 2 1 1 1 2 3 2 1 1 1 2 2 2 2 3 3 3 3 3 3 3 4 4 4
4 5 6 6 5 2 1 2 3 2 1 1 1 1 2 2 2 2 1 0 1 1 1 1 1 2 2 3 2 3 3 3 3 3 2 2 2 3 3 4 4 4 4 4 4 4 3 3 2 2 2 1 1 1 2 1 1 0 1 1 1 1 1 1 3 3 2 3 4 3 3 4 5 4 4 3 3 3 3 3 2 1 1 1 0 1 0 0 0 0 1 1 2 2 2 3 3 3 3 3 4 4 4
4 4 4 5 6 5 4 2 3 2 1 0 1 1 2 2 2 2 1 0 1 1 1 1 2 3 3 3 3 4 4 4 4 3 2 2 2 2 3 4 4 4 4 4 4 3 3 2 2 2 2 2 1 2 2 2 2 2 2 2 3 3 3 2 3 3 1 3 5 4 4 4 4 4 3 2 2 3 4 4 2 1 1 1 0 1 0 1 1 2 2 2 2 2 2 3 2 2 2 2 3 3 3
5 4 4 4 5 6 6 5 4 2 1 0 1 2 1 1 3 2 1 1 1 1 1 2 3 3 4 4 4 4 4 4 4 4 3 2 1 2 3 3 3 3 4 4 4 3 2 2 2 2 2 2 2 2 2 2 2 2 3 3 3 4 3 3 4 3 2 3 4 4 4 4 3 3 3 2 2 3 4 4 3 2 2 1 1 1 1 1 2 2 3 3 4 3 1 1 0 0 1 1 2 2 2
6 5 4 4 4 5 6 6 6 4 2 1 1 1 1 1 2 2 1 2 2 2 2 2 3 4 4 4 4 4 4 4 4 4 4 3 2 1 2 3 3 3 3 3 3 3 3 2 2 2 2 2 2 2 3 3 2 2 3 3 3 3 3 3 4 4 4 4 4 3 3 3 3 3 3 2 2 3 4 4 3 3 3 2 1 2 2 3 2 2 3 3 3 3 2 2 2 2 2 3 3 3 3
7 7 5 4 4 4 4 5 5 5 4 3 2 1 0 1 1 1 1 2 3 3 3 3 3 4 4 5 4 4 4 4 5 5 5 3 2 1 2 3 3 3 3 3 3 3 3 3 2 1 2 3 3 3 3 3 2 3 3 3 3 2 3 4 4 4 5 4 4 3 3 3 3 3 2 2 2 3 4 4 4 3 3 3 3 3 4 4 3 1 3 3 3 2 1 1 1 1 2 2 3 3 3
6 6 6 4 3 3 4 4 5 5 4 4 4 2 1 1 0 0 1 2 3 4 4 4 4 4 4 4 4 4 4 5 5 5 5 5 3 3 3 3 3 4 4 4 3 3 3 3 2 2 3 3 3 3 3 2 2 3 3 3 2 2 2 3 4 4 4 4 4 4 4 4 4 3 2 1 2 3 4 4 4 3 3 4 5 5 4 4 2 1 2 3 3 2 1 0 1 0 0 1 2 3 3
5 5 5 5 5 5 6 6 6 5 5 4 5 4 3 2 2 0 1 2 3 3 4 4 5 5 4 4 4 4 4 5 5 5 5 6 6 4 4 4 3 3 4 4 3 3 3 3 3 3 3 3 3 2 2 2 2 2 2 3 2 2 2 2 3 3 2 2 2 3 3 3 4 4 3 2 1 2 3 4 4 3 4 4 6 5 4 2 0 1 2 2 2 1 1 0 0 0 0 1 2 3 3
5 5 6 6 7 8 8 7 7 6 5 6 6 5 4 3 3 2 1 1 3 3 4 4 5 5 4 4 3 4 5 5 5 5 6 6 7 6 5 4 3 3 3 3 4 3 3 3 3 4 4 3 3 2 2 2 1 1 2 2 2 2 2 2 2 2 1 1 1 1 2 2 2 3 4 4 2 2 3 3 3 3 4 5 6 5 3 2 2 2 2 2 2 1 1 1 1 1 2 2 2 3 3
5 7 8 8 8 8 8 7 6 6 6 6 6 6 5 5 4 3 3 2 2 3 4 5 5 4 4 4 4 5 5 5 5 5 6 6 6 6 6 5 3 3 3 3 3 3 3 3 3 3 3 3 2 2 2 1 1 1 1 1 1 1 2 2 1 1 0 0 1 1 2 3 3 2 3 4 4 3 3 2 2 2 3 5 6 5 4 3 3 3 4 4 3 2 2 2 2 3 3 3 2 3 3
7 9 9 8 8 8 7 7 6 7 7 6 6 6 6 5 4 4 4 3 3 2 3 4 5 5 4 4 5 5 5 5 5 5 5 5 6 7 7 6 4 4 3 2 2 2 2 2 3 3 3 2 2 2 2 2 1 1 1 1 0 1 1 1 1 2 1 1 1 2 2 3 4 3 2 2 3 2 2 1 1 1 2 3 5 5 4 4 4 5 5 6 5 2 1 1 2 2 2 2 3 3 3
9 9 8 8 8 9 9 8 7 7 7 6 6 6 6 6 6 5 4 4 3 3 3 4 4 5 5 5 6 5 5 5 5 5 5 5 6 7 7 6 5 4 3 3 2 2 2 2 2 2 2 2 2 3 2 2 1 1 1 0 0 0 1 1 1 1 1 1 1 2 2 3 4 4 3 2 2 2 2 2 2 1 1 2 3 4 4 4 5 5 6 6 6 3 1 2 2 2 2 2 3 4 4
9 8 8 8 9 9 9 9 8 8 7 6 8 8 8 8 8 6 5 4 4 4 4 3 4 5 5 5 5 5 5 5 5 5 5 6 8 7 7 6 5 4 3 3 3 2 2 1 2 2 2 2 3 3 2 2 1 1 1 0 0 0 1 1 0 1 1 1 1 1 2 3 4 4 4 4 4 3 3 2 2 1 1 1 2 3 2 2 3 4 5 5 5 3 3 4 3 3 3 3 3 5 5
8 7 7 8 8 8 8 9 9 9 8 8 9 8 8 8 7 7 6 5 5 4 4 3 3 4 5 6 6 5 5 5 5 5 6 7 8 7 7 6 6 5 4 4 3 3 3 2 2 2 2 3 3 3 2 2 2 2 1 1 1 1 1 1 1 1 1 1 1 1 1 1 2 2 3 4 5 5 4 4 3 2 1 1 0 0 0 0 1 3 4 4 6 6 6 6 5 4 3 2 3 4 5
8 8 8 8 8 8 9 9 9 8 8 7 8 7 7 7 7 7 6 6 5 4 4 4 4 4 5 6 6 5 5 5 5 5 6 7 8 8 8 7 7 6 5 4 4 4 4 4 4 3 3 3 3 3 3 2 2 2 1 1 1 1 1 1 2 2 2 2 2 2 2 2 1 1 2 2 3 4 4 5 5 4 4 3 4 5 4 4 2 1 2 2 3 5 7 7 6 4 3 2 2 3 5
8 8 8 7 9 9 9 9 8 8 7 6 6 6 6 6 7 7 6 6 5 5 5 5 4 5 5 6 6 5 5 5 4 5 6 7 8 9 9 8 8 7 6 5 4 4 5 5 5 4 3 3 3 3 3 3 2 1 1 1 1 1 1 2 2 2 2 2 2 2 2 1 1 1 0 1 1 2 3 3 3 3 3 4 5 6 6 6 4 2 1 1 1 2 5 7 6 4 3 2 3 3 4
7 7 6 7 9 9 9 9 8 7 7 6 5 5 5 6 6 6 6 6 5 6 6 5 5 5 6 6 6 5 5 5 5 5 5 7 8 9 9 9 8 7 7 6 5 5 5 5 5 4 4 4 4 4 4 3 3 2 1 1 0 1 1 1 2 2 2 2 2 2 2 2 1 0 1 1 1 1 2 2 2 2 2 2 3 4 5 5 5 4 3 1 1 1 3 5 5 3 2 1 2 2 3
7 7 7 7 9 10 9 9 9 8 8 7 6 5 5 5 5 5 5 6 6 6 6 6 5 5 6 6 5 5 5 5 5 5 5 6 7 8 9 9 8 8 7 7 6 5 5 5 5 4 4 4 4 4 4 4 4 3 2 1 0 1 1 1 2 2 2 2 2 2 2 2 2 1 1 1 1 2 2 2 2 2 2 2 2 3 3 4 5 4 4 2 2 3 4 4 3 2 1 0 1 1 2
8 8 8 8 9 10 10 9 10 9 8 8 7 6 6 5 5 5 5 5 6 6 6 6 5 6 5 5 5 5 5 5 4 4 5 5 6 7 8 8 8 9 8 8 8 7 5 5 5 4 4 4 4 5 5 5 4 4 3 2 1 1 1 1 1 2 2 2 2 2 2 2 2 1 1 1 1 2 2 3 2 2 2 2 2 2 2 3 4 4 4 4 4 4 4 4 2 2 1 0 0 1 2
8 9 9 9 9 10 10 10 9 9 8 7 6 6 6 6 5 5 5 5 5 5 5 6 5 5 5 5 5 5 5 5 4 4 5 5 5 7 7 8 9 9 9 9 9 8 6 5 5 5 5 4 5 5 5 5 4 5 4 3 2 2 2 2 2 2 2 2 2 1 1 1 1 2 1 1 2 2 2 3 3 2 2 3 2 2 3 3 3 3 3 4 4 4 4 3 2 2 2 1 1 2 3
8 9 10 10 10 10 10 9 9 8 8 7 6 5 5 5 4 4 5 5 5 5 5 5 5 5 5 5 5 5 5 4 4 4 5 5 5 6 7 8 8 9 9 9 9 8 7 6 5 5 5 5 5 5 5 5 5 6 5 4 3 3 3 2 2 2 2 1 1 1 1 1 1 1 2 2 2 2 3 3 3 3 3 3 3 3 3 3 3 3 3 3 4 4 4 4 3 3 3 2 1 1 3
8 9 9 9 9 9 8 8 8 8 8 8 7 7 6 5 5 5 5 5 5 5 5 5 5 4 4 4 4 4 5 5 5 5 5 5 5 6 7 8 8 8 8 8 9 8 7 6 5 5 5 5 5 5 5 5 6 6 6 5 4 4 3 3 3 3 2 2 1 1 1 1 1 1 1 2 2 2 3 3 3 3 3 4 4 4 4 3 3 3 3 3 3 4 4 4 4 4 3 1 1 0 2
7 7 8 8 8 7 7 6 6 7 7 7 7 6 6 5 5 5 5 5 5 5 5 4 4 4 4 4 4 4 5 5 5 5 5 5 5 6 7 7 7 7 8 8 8 8 8 7 5 5 5 5 4 5 5 6 6 7 6 5 5 4 4 3 3 3 2 2 1 1 2 2 1 1 0 1 1 1 2 2 2 3 3 3 4 4 4 3 3 3 3 3 3 4 4 4 4 4 3 1 1 1 3
6 6 7 8 8 6 6 6 5 5 6 6 5 5 5 5 5 4 4 4 4 5 5 4 4 4 4 4 4 5 5 5 5 5 5 5 5 6 7 7 6 7 7 7 7 8 8 7 6 6 5 5 5 5 5 6 7 7 6 5 5 4 4 4 4 3 3 2 2 2 2 2 2 2 1 0 0 0 1 1 2 2 3 3 3 3 3 3 3 3 3 4 3 4 4 4 4 3 3 2 2 2 5
6 6 7 8 9 7 6 6 5 5 5 5 5 4 4 4 4 4 4 4 4 4 4 4 4 4 4 4 4 5 5 5 5 5 5 5 6 7 7 7 6 7 7 8 8 8 8 7 6 6 6 6 5 5 6 6 7 7 6 5 5 5 5 5 5 4 4 4 4 3 3 3 3 2 2 1 0 0 1 1 2 2 2 2 2 3 3 3 3 3 4 4 3 4 4 4 4 3 3 4 5 6 7
6 6 7 7 9 7 6 5 5 5 5 5 5 5 5 5 5 5 5 4 4 4 4 4 4 4 4 4 4 5 5 5 5 5 5 6 6 7 7 7 6 7 8 8 9 9 8 7 6 6 6 6 6 6 6 6 7 6 6 5 5 5 5 5 6 6 5 5 5 4 4 3 3 3 2 2 1 1 1 1 2 1 1 1 2 2 3 3 3 3 3 3 3 4 4 4 4 4 4 5 6 7 9
6 6 6 7 8 7 6 5 5 5 5 5 5 5 5 5 4 5 5 5 4 4 4 4 4 4 4 5 5 5 5 5 5 5 6 6 6 6 6 6 5 6 7 8 9 9 9 8 6 6 5 5 5 6 6 6 6 6 6 5 5 5 5 5 6 5 5 5 5 5 4 4 2 2 2 3 2 2 1 1 1 1 1 1 1 1 1 2 3 3 3 3 4 4 4 4 4 4 5 5 6 7 7
5 5 7 8 7 6 6 5 5 5 5 5 5 4 4 4 4 4 4 4 4 4 3 3 3 4 4 5 5 5 5 5 5 5 6 6 6 6 6 6 5 6 7 7 8 8 8 8 7 6 5 5 4 5 6 6 6 6 6 5 5 4 4 4 5 4 4 5 4 4 4 3 2 2 2 3 3 3 2 1 1 2 2 2 2 3 3 2 2 2 2 2 3 4 4 5 5 5 5 6 6 6 7
5 6 8 8 6 6 6 6 6 5 5 4 4 3 3 3 3 3 3 3 3 2 2 2 3 3 4 4 5 5 5 5 5 5 6 6 6 5 5 5 5 6 7 7 6 7 7 6 6 6 5 5 4 4 5 5 5 6 5 5 4 4 4 3 3 4 4 4 5 4 4 3 3 1 2 3 3 3 3 2 2 2 2 2 3 3 4 4 4 3 2 2 2 3 4 5 6 6 6 6 5 6 6
5 7 7 6 5 5 6 6 6 5 4 3 3 2 2 2 1 1 1 2 2 1 2 2 3 4 4 5 5 4 4 4 4 5 6 7 7 6 5 5 5 6 6 6 5 6 6 6 6 6 5 5 4 4 5 5 5 5 5 4 4 3 3 3 3 4 4 5 6 6 5 4 3 2 2 2 3 2 2 2 2 2 2 3 4 3 3 3 4 4 4 3 2 2 2 3 4 5 5 6 5 5 5
6 7 6 5 5 5 6 6 6 5 4 3 2 2 2 1 0 0 0 0 1 1 1 2 2 3 4 4 4 3 3 3 3 4 6 7 7 6 5 5 5 6 6 5 5 5 6 6 6 6 5 5 5 5 5 5 5 5 5 4 4 4 4 3 4 5 5 5 5 7 6 5 4 3 3 2 2 1 2 2 1 1 2 3 2 2 1 0 1 2 3 4 4 3 2 1 2 3 4 5 6 5 5
6 6 5 5 5 5 5 5 5 5 5 4 3 2 2 1 1 0 0 0 1 1 1 1 2 2 3 3 3 3 3 3 4 4 5 7 8 8 7 6 6 6 6 6 6 6 6 6 6 6 6 6 6 6 5 5 5 5 5 5 5 4 4 4 4 5 5 5 4 5 5 5 4 3 3 3 2 1 2 2 2 1 2 2 1 0 1 0 1 1 2 3 4 5 4 3 1 1 2 3 5 6 5
6 5 5 5 5 5 5 5 5 5 6 5 3 2 2 2 1 0 0 0 1 1 1 1 2 2 1 1 2 2 4 5 5 5 6 7 8 8 8 8 7 7 6 6 7 7 7 6 6 6 6 6 6 6 5 5 5 6 6 6 5 5 4 5 5 5 5 5 4 4 4 4 4 3 2 2 3 3 2 2 2 1 1 1 2 1 0 1 2 2 1 2 2 3 4 5 4 3 2 2 3 4 5
6 5 5 5 5 5 5 5 5 5 6 7 5 3 3 2 2 1 0 0 0 1 1 2 1 1 1 1 2 3 4 5 6 6 6 6 6 8 8 8 8 8 7 7 7 8 8 7 6 7 7 7 7 6 5 5 5 5 6 6 5 4 4 4 5 6 5 5 5 5 4 4 4 3 2 2 2 3 3 3 3 2 1 1 1 2 2 1 2 1 1 1 0 1 2 4 4 3 3 3 2 1 2
5 5 5 5 5 5 5 5 4 5 6 7 6 5 4 4 4 3 2 2 1 1 1 1 1 1 2 2 3 4 5 5 5 5 5 5 5 6 6 7 8 8 8 8 8 8 8 8 7 7 8 7 7 6 5 5 5 5 5 5 5 4 4 4 5 5 5 5 5 5 5 5 4 4 3 2 1 2 2 3 4 3 1 1 1 1 2 2 1 0 1 2 2 2 1 2 4 3 3 3 3 2 1
5 4 4 4 4 4 4 4 4 5 6 6 5 5 5 5 4 4 4 4 4 3 3 3 3 3 3 4 4 4 4 4 4 4 4 4 4 4 5 6 8 8 8 8 8 8 9 9 8 7 7 7 7 7 7 6 5 5 5 5 5 4 4 4 4 4 4 5 5 6 6 6 5 4 3 2 1 1 2 2 3 4 3 1 1 0 1 2 3 2 1 1 1 1 2 3 3 2 3 3 4 2 1
5 4 4 4 4 4 4 4 4 5 6 6 5 5 5 5 4 4 4 4 4 4 4 3 3 4 4 4 4 4 3 3 3 3 3 3 3 3 5 6 8 9 9 9 9 9 9 9 8 7 7 7 8 8 7 7 6 6 5 5 5 4 4 4 4 4 5 5 6 6 7 6 5 4 3 3 1 1 1 2 2 3 4 4 2 1 1 2 3 3 3 3 2 2 2 2 2 1 2 3 5 3 2
5 5 4 4 4 4 4 4 4 5 6 6 6 5 5 5 4 4 4 4 4 3 3 2 2 3 3 3 3 2 2 2 3 2 2 2 2 3 4 6 8 9 9 8 8 9 9 9 9 8 7 7 8 8 8 7 7 6 5 5 5 5 4 4 4 5 5 6 6 6 7 7 7 5 4 4 3 2 2 1 1 2 3 4 4 3 1 2 3 3 3 3 3 3 2 2 1 2 1 2 4 4 3
5 5 4 4 4 4 4 4 4 5 6 6 6 5 5 5 4 5 5 4 4 3 3 2 2 2 2 2 2 2 2 2 2 2 2 2 3 4 4 5 6 8 8 8 7 8 9 9 9 9 8 7 8 8 8 8 7 6 6 5 5 5 5 5 5 6 6 5 5 5 6 7 7 6 5 4 4 4 3 2 2 2 3 3 4 3 2 1 1 1 2 2 3 2 2 2 1 2 2 2 3 4 5
5 5 4 4 3 4 4 4 3 4 5 6 6 5 5 5 4 5 5 5 4 4 4 3 3 2 2 2 3 3 2 2 2 2 3 4 4 4 4 4 5 6 8 8 7 8 8 9 9 9 8 8 7 8 8 8 7 7 6 6 5 5 5 5 5 5 5 5 5 5 6 7 7 6 5 4 4 4 4 3 3 3 3 3 3 3 3 3 2 2 1 1 2 2 2 2 3 3 3 2 2 3 5
6 5 4 4 4 4 4 4 4 4 5 6 6 6 5 5 4 5 5 5 5 5 4 3 2 2 2 2 3 3 3 3 3 4 4 4 4 4 4 4 4 5 6 7 7 8 8 9 9 9 9 8 7 8 8 8 7 7 6 6 5 6 5 5 5 5 5 5 5 5 6 7 7 6 5 5 4 4 3 3 3 3 3 3 2 2 3 4 4 4 3 2 1 1 2 2 3 3 3 3 3 3 4
6 5 5 4 4 4 4 4 4 5 6 6 5 5 5 5 5 5 4 4 4 4 4 3 3 2 2 2 2 3 4 4 4 4 5 5 4 4 4 4 4 4 5 6 7 8 8 8 8 9 10 9 8 8 8 9 8 7 7 6 6 6 5 5 5 4 5 5 6 6 7 7 7 6 6 5 5 4 3 3 3 3 3 3 3 2 3 3 3 4 4 3 3 2 1 1 2 3 3 3 3 3 3
6 5 5 5 4 4 4 4 4 5 7 7 6 6 6 6 6 5 4 4 4 4 4 3 3 4 3 3 3 4 4 5 4 4 5 5 5 5 4 4 4 4 4 5 6 7 8 8 8 9 10 10 9 8 8 9 8 8 7 7 6 6 5 5 5 6 6 7 7 7 7 7 6 6 5 5 5 4 4 4 3 3 3 3 3 3 2 2 3 3 3 3 3 3 3 2 2 2 2 2 2 3 3
7 6 5 5 4 3 3 3 4 5 6 6 6 6 6 6 6 5 5 5 5 5 4 4 4 4 3 3 3 4 4 4 4 4 5 5 5 5 4 4 4 4 4 4 4 5 6 8 8 9 9 9 9 8 8 8 8 7 7 6 6 6 6 6 7 7 8 8 8 8 7 7 6 6 5 5 5 5 4 4 4 3 3 3 3 3 3 3 3 2 2 2 2 3 3 3 3 2 2 1 1 2 3
7 6 5 5 4 3 3 3 4 5 6 6 7 6 6 6 6 6 5 5 6 6 5 4 4 4 4 4 4 4 4 4 4 4 4 4 5 4 4 4 4 4 4 4 4 4 5 6 7 7 8 8 8 7 7 7 7 7 6 6 7 6 6 6 7 7 7 7 7 7 7 6 6 6 5 5 5 5 5 5 5 4 3 3 3 3 3 3 3 3 2 2 2 2 2 2 2 3 3 3 2 2 3
7 7 5 4 3 2 3 4 4 5 6 7 7 7 6 6 6 5 5 5 6 5 5 4 4 4 5 5 5 4 4 4 4 4 4 4 4 4 3 3 3 3 4 3 3 4 4 5 6 7 7 7 6 6 7 7 7 6 5 5 6 6 6 6 6 6 6 6 6 6 6 5 6 6 6 5 6 5 5 5 6 5 4 4 4 4 4 4 4 3 3 3 3 3 2 2 2 3 3 3 3 3 3
7 7 6 4 3 3 3 4 4 4 5 6 7 7 7 7 6 6 5 5 6 5 4 3 3 4 4 5 4 4 4 4 4 4 4 4 3 3 3 3 3 4 3 3 4 4 4 4 5 6 6 6 6 6 6 7 6 5 5 5 5 5 5 5 5 5 5 6 5 5 5 5 5 5 5 5 5 5 5 5 5 5 5 5 5 5 4 4 4 4 3 3 3 3 3 3 3 3 3 3 3 3 3
7 7 6 5 3 3 3 3 4 4 5 6 7 6 6 6 6 5 5 5 5 4 3 3 3 4 4 4 4 3 3 3 3 3 3 3 3 3 3 3 4 3 3 4 4 4 4 4 4 5 6 6 5 6 6 6 6 5 5 5 5 5 5 5 6 6 6 6 6 5 5 4 5 4 4 5 5 5 4 4 4 4 5 5 6 5 5 5 4 4 4 4 4 4 4 3 3 3 3 3 3 3 3
8 8 7 6 4 3 3 3 4 4 5 6 6 6 6 6 5 4 4 4 5 4 3 3 3 3 3 3 3 3 3 3 3 3 3 3 3 3 3 3 3 3 3 3 3 4 4 4 4 5 5 5 4 5 5 5 5 4 4 4 4 5 6 6 6 6 7 7 6 5 5 5 5 5 5 5 5 4 4 4 4 4 4 5 5 5 4 4 4 5 5 4 4 4 4 4 3 3 4 4 3 4 4
7 8 8 7 5 3 3 3 4 4 5 6 6 5 5 4 3 3 3 4 4 3 3 3 3 3 3 3 3 3 2 2 2 2 2 2 3 3 3 3 3 3 3 3 3 3 4 4 4 4 4 4 4 4 4 5 5 4 4 4 4 5 6 6 6 6 7 7 6 5 5 5 5 5 5 5 5 4 4 4 5 4 4 5 5 4 4 4 4 4 4 4 4 5 4 4 4 4 4 4 4 4 4
8 8 8 7 5 3 2 3 4 4 5 5 6 5 4 3 3 2 3 3 3 3 3 3 3 3 3 2 2 2 2 2 2 2 2 2 2 2 2 2 2 2 2 2 2 3 3 3 3 3 3 3 4 4 4 4 4 5 5 5 5 5 6 6 6 6 6 6 6 5 5 5 4 4 5 5 4 4 4 5 5 5 5 5 5 5 4 4 4 4 4 4 4 5 4 4 4 4 3 4 4 4 4
Wind_Direction
162 156 150 146 146 146 147 148 148 147 147 145 144 145 147 148 150 150 150 149 147 145 142 136 127 118 112 109 110 117 124 128 132 131 130 128 126 125 122 119 114 109 104 100 96 93 90 88 85 83 84 89 101 118 127 132 135 135 132 126 117 114 125 137 147 153 159 164 169 170 175 207 240 194 175 170 174 177 179 179 177 175 176 179 180 180 182 185 188 180 166 154 147 145 143 143 145 150 162 175 176 159 160
158 158 154 153 153 155 157 159 161 164 163 155 149 148 148 150 152 152 151 150 147 144 138 130 120 110 103 99 98 104 112 121 127 129 127 124 125 127 128 125 121 115 109 105 101 99 96 93 89 83 78 75 78 102 117 125 130 132 132 131 130 130 137 146 155 161 165 168 170 169 166 162 147 152 159 166 175 181 184 184 181 178 177 177 178 180 183 186 189 184 171 158 149 147 145 144 147 156 172 190 206 177 165
153 157 158 159 161 161 164 166 171 171 168 159 153 151 150 151 154 154 152 150 147 140 133 124 115 107 103 99 98 100 107 116 124 127 125 121 121 126 129 129 128 122 117 112 107 105 102 98 94 87 79 71 62 68 92 112 123 128 131 133 135 138 144 151 161 167 170 172 172 170 166 159 144 132 140 155 174 184 188 189 187 185 183 182 181 182 184 187 191 190 177 162 152 148 145 145 149 163 178 193 211 207 181
144 147 155 164 173 174 176 177 179 173 165 158 155 156 156 157 158 157 155 152 146 138 128 120 114 111 108 107 107 108 112 118 123 125 126 125 124 123 124 127 131 131 127 120 112 103 99 97 97 90 83 76 66 68 77 90 103 119 129 135 139 143 147 153 162 170 175 177 177 174 170 164 154 138 121 122 156 177 186 190 192 196 200 199 192 187 187 189 193 195 183 166 153 149 148 151 158 166 177 190 206 216 197
126 124 131 156 192 202 203 201 190 173 165 160 159 164 169 170 164 162 161 155 145 135 127 120 117 116 116 117 120 122 122 121 120 123 126 127 128 125 124 128 139 143 138 127 114 100 92 91 95 91 85 78 79 82 80 76 76 101 123 136 142 146 149 154 161 169 176 180 182 180 176 169 160 148 129 108 105 138 178 196 200 200 212 217 210 199 192 191 196 197 186 170 155 153 155 162 163 169 176 188 202 214 204
89 94 104 126 177 219 226 223 206 179 167 162 165 174 179 176 166 165 169 167 142 137 132 127 121 120 122 125 130 132 131 126 116 119 124 127 129 130 134 142 151 145 136 126 117 107 98 93 94 91 86 83 91 94 90 82 66 84 118 138 148 151 153 155 160 167 174 180 185 185 182 176 169 157 139 116 89 65 26 295 243 196 210 220 222 211 200 193 197 196 187 172 156 159 162 165 166 171 178 189 200 211 204
21 37 65 91 101 201 222 224 216 188 173 168 170 177 182 182 176 178 193 212 175 207 186 144 127 124 126 130 137 142 141 136 121 121 124 128 132 137 147 157 149 135 127 122 121 116 111 106 105 106 108 115 121 116 113 115 150 194 212 227 234 207 172 162 162 166 171 177 183 188 190 188 182 167 146 122 96 58 24 358 332 209 212 220 227 219 207 197 196 193 186 173 155 161 165 169 171 175 183 194 202 209 203
342 349 13 42 46 28 312 235 221 202 188 176 168 175 184 190 197 204 216 227 222 239 255 46 110 124 126 132 148 154 150 142 129 126 130 135 141 148 151 143 123 119 119 121 123 124 123 123 127 135 143 150 148 140 137 153 206 227 243 256 267 272 268 234 173 164 168 174 180 189 196 199 195 174 147 123 106 75 35 4 332 277 227 225 236 225 214 201 192 188 184 179 169 168 169 171 176 182 191 200 205 208 200
333 341 357 25 50 26 13 8 225 243 235 201 159 174 189 204 223 235 237 235 233 250 358 24 37 85 102 110 127 143 145 139 130 135 143 151 156 155 143 122 109 113 118 122 127 130 132 136 140 148 155 158 156 153 157 190 233 249 258 265 270 273 280 293 312 323 321 181 167 175 182 186 184 165 140 120 109 97 73 17 307 255 225 223 240 236 224 204 185 187 193 197 189 177 171 172 179 188 199 207 210 210 199
339 340 342 354 49 46 33 28 51 14 347 345 359 214 212 222 234 247 249 247 245 9 33 34 35 47 55 56 45 52 83 109 122 138 152 163 167 155 135 118 111 115 120 123 126 130 133 135 137 144 151 155 156 159 171 210 249 264 270 273 273 272 280 295 311 304 292 245 137 139 143 146 146 139 126 113 110 107 108 128 271 256 220 211 233 238 228 201 186 197 208 211 200 181 175 176 185 195 206 215 219 217 201
342 335 333 335 353 45 70 67 65 44 16 360 349 316 274 253 241 243 246 252 9 33 39 43 47 48 49 48 43 44 51 68 96 126 148 166 172 153 134 123 120 120 121 122 124 126 129 131 133 137 140 144 153 154 160 176 223 254 267 271 272 272 277 287 291 266 244 201 133 122 121 122 122 121 115 110 115 123 130 145 220 261 236 209 226 237 229 191 192 200 212 218 211 189 185 189 195 204 214 223 226 227 208
337 333 332 333 335 347 50 90 85 67 42 20 351 304 288 280 264 245 238 266 47 41 41 45 53 55 56 56 58 57 55 58 67 89 121 151 166 148 135 127 124 122 122 122 124 128 132 137 140 130 120 110 118 118 115 111 110 67 306 309 325 335 333 306 290 260 214 167 134 116 110 110 110 109 111 117 127 131 126 122 136 185 198 176 208 278 301 30 7 324 274 247 220 203 202 207 209 214 221 226 228 233 217
330 334 335 335 334 343 359 37 80 80 66 18 263 256 268 274 270 249 229 119 65 59 48 45 52 56 56 56 59 56 53 53 54 61 76 106 141 140 133 128 124 121 119 122 127 134 141 143 127 110 100 90 72 70 70 69 65 57 51 44 35 28 25 10 335 312 225 142 133 122 114 111 113 115 116 113 110 112 108 105 106 117 127 128 175 230 201 91 40 4 344 325 287 233 216 212 212 219 223 229 236 242 226
326 334 337 339 343 352 354 358 16 42 56 262 248 246 232 230 251 241 210 143 109 90 66 49 52 61 61 58 56 53 48 44 43 45 47 52 79 119 126 124 119 116 117 120 126 129 128 118 102 104 106 103 87 77 71 69 72 72 70 65 57 48 44 32 6 354 23 94 121 121 123 124 126 115 102 90 86 95 95 93 85 73 65 73 185 192 165 116 71 7 342 327 313 290 266 213 191 335 336 322 312 310 291
326 332 339 349 2 0 355 351 352 352 344 311 255 262 231 200 227 235 201 155 139 115 89 65 58 68 68 64 58 55 48 39 31 32 32 32 27 91 116 121 118 112 113 115 118 116 113 111 115 125 119 105 90 82 76 72 74 80 80 76 70 65 63 53 27 16 27 54 88 102 109 109 97 80 73 74 80 79 76 70 60 53 50 49 55 142 135 117 88 1 331 321 314 310 330 23 36 24 9 354 342 337 325
333 332 336 350 17 5 356 351 346 341 338 335 331 352 322 251 212 227 189 157 141 118 101 86 76 76 72 67 62 58 50 40 30 27 25 24 24 65 104 118 118 114 111 109 108 111 112 115 125 123 104 93 85 81 80 80 78 81 80 77 71 67 73 73 59 34 30 36 49 60 66 68 69 67 65 61 60 56 50 43 34 36 48 57 60 88 104 107 92 357 326 324 325 323 340 25 54 33 360 336 324 321 317
340 332 332 342 18 7 1 354 345 340 340 342 350 2 341 309 5 129 154 149 125 105 99 97 89 81 77 73 67 60 52 45 36 30 25 22 24 46 80 103 110 114 113 110 107 111 114 116 120 102 89 86 83 80 83 84 79 81 80 77 70 57 62 73 82 66 49 37 35 39 42 44 48 48 38 17 31 43 39 30 14 14 42 65 70 75 81 89 99 325 323 338 354 343 329 344 125 124 335 317 312 311 312
346 337 339 351 16 9 4 357 348 342 344 352 358 359 348 338 358 86 145 139 110 97 95 95 90 84 81 78 72 61 54 49 44 36 29 25 22 33 58 81 91 100 108 114 115 117 117 116 114 101 96 95 95 87 82 77 65 72 81 87 86 70 56 54 68 68 59 44 37 22 13 12 24 17 6 352 13 50 48 37 15 11 32 57 74 72 70 67 55 319 333 350 11 353 325 298 121 111 7 327 314 311 311
360 358 4 12 17 12 6 360 351 348 358 8 6 5 4 2 3 11 64 117 109 105 102 98 91 87 84 81 77 64 57 52 49 42 35 29 23 28 43 62 73 77 89 105 118 120 121 119 113 110 111 112 114 102 90 81 54 58 79 100 117 112 94 72 59 51 38 15 2 332 306 303 325 358 356 350 356 54 62 49 18 17 31 47 61 65 61 41 345 315 315 327 351 347 349 357 8 18 15 355 327 318 315
20 25 25 23 20 16 11 4 355 5 15 19 13 13 13 12 13 10 4 15 77 103 107 103 95 93 90 85 76 66 60 56 52 48 40 34 29 30 35 42 54 57 68 89 111 121 123 120 116 118 118 118 121 117 113 108 102 88 97 120 150 136 125 117 114 112 102 289 269 255 260 267 269 288 328 346 351 35 60 57 19 22 34 45 52 50 40 17 344 312 282 272 291 316 350 6 8 12 12 3 342 331 324
32 34 32 30 29 25 19 13 10 22 26 25 22 19 15 14 19 14 6 1 9 44 83 96 97 97 94 84 74 69 64 58 53 52 47 41 37 38 37 36 38 39 44 61 97 113 118 118 118 122 118 115 116 116 116 116 122 121 126 148 193 143 130 134 149 152 158 176 206 201 216 236 255 262 284 325 338 349 356 350 314 2 35 52 59 51 35 10 350 332 295 263 257 271 329 16 18 11 6 1 354 345 336
35 34 34 34 35 31 27 24 27 31 30 26 25 20 18 18 19 16 15 16 18 21 46 78 97 98 90 80 72 70 65 59 54 52 50 48 46 45 41 37 33 33 33 39 65 96 108 111 107 115 113 111 111 109 107 105 114 111 119 149 238 132 127 141 170 150 143 148 163 180 195 210 230 239 245 256 279 287 296 303 298 316 357 43 63 61 40 9 348 341 321 294 262 272 334 16 11 9 12 9 2 350 342
33 32 33 35 37 35 32 32 34 34 32 27 26 23 22 20 18 15 17 24 32 30 33 52 87 90 85 77 71 68 65 61 56 52 50 49 49 48 45 40 33 34 36 38 44 63 75 83 83 89 93 98 97 96 96 94 83 84 87 94 294 93 120 126 75 49 60 87 130 162 180 193 208 214 219 226 238 244 257 280 307 319 337 26 65 74 61 17 338 341 333 321 305 326 354 2 350 355 4 12 10 354 346
28 29 30 32 34 36 37 37 38 36 32 29 28 26 25 22 17 17 19 23 31 31 26 30 58 78 81 78 72 68 65 62 56 52 51 50 51 49 47 41 34 35 38 41 40 44 44 42 47 55 65 72 78 81 82 77 64 60 45 359 342 26 87 103 84 45 36 35 45 74 102 128 159 187 204 215 220 231 241 249 256 257 264 282 309 231 212 268 324 336 335 331 330 337 342 344 339 336 341 355 7 354 348
24 27 27 28 28 33 37 39 41 39 36 32 30 29 27 24 20 22 23 25 28 30 30 34 47 66 75 77 73 69 65 62 56 50 50 50 50 50 47 43 38 37 37 39 39 39 36 33 33 41 49 54 61 64 65 64 61 55 32 357 348 18 69 95 99 78 62 51 46 52 53 54 67 138 184 199 203 214 228 239 246 249 253 260 264 258 253 250 253 308 336 334 325 314 312 313 320 319 315 313 324 338 343
26 28 28 27 27 29 32 34 38 39 39 37 34 32 30 28 26 27 27 27 28 33 40 46 51 60 69 74 73 69 66 62 56 50 49 50 48 48 46 43 40 39 38 36 35 37 36 33 30 37 44 48 49 50 51 51 54 51 34 3 356 17 59 89 98 90 85 78 71 76 72 56 23 21 267 223 208 203 216 229 239 242 246 250 252 253 253 254 256 274 313 341 26 299 287 288 300 309 307 286 275 305 330
29 29 31 32 29 29 29 28 28 32 33 33 35 36 34 33 33 32 31 30 30 35 42 50 56 60 66 70 70 68 66 62 56 52 51 49 46 45 44 43 42 41 39 36 33 36 34 31 27 34 39 44 46 44 41 37 32 27 17 359 359 26 49 72 93 97 101 106 116 125 134 144 161 220 265 267 256 232 236 242 248 243 235 232 235 240 246 252 257 265 278 292 104 170 247 262 275 298 313 289 260 293 322
30 30 33 35 31 30 28 26 24 24 23 22 26 29 32 34 39 38 37 37 36 36 41 48 57 60 65 67 66 66 64 61 55 52 51 50 47 44 43 42 41 40 39 37 34 36 35 31 26 27 30 35 38 36 32 27 19 10 358 348 346 45 51 62 87 104 109 116 132 143 153 162 168 187 223 255 269 263 258 255 250 235 230 231 233 231 234 239 242 245 246 238 203 204 219 232 247 274 306 342 265 314 326
29 31 34 35 31 30 28 27 25 23 20 16 15 14 17 24 37 43 45 45 45 43 44 49 58 61 64 66 65 65 62 60 53 50 50 50 48 43 42 42 41 39 38 37 35 35 37 37 31 27 27 28 29 27 25 19 8 3 359 356 359 40 51 55 71 98 105 109 121 139 155 162 164 169 189 227 256 260 261 261 254 240 238 240 239 225 222 223 223 220 216 213 212 216 219 223 230 240 239 210 225 273 302
29 31 33 33 28 27 27 26 24 22 20 17 14 8 8 13 25 36 45 51 54 53 53 53 60 63 65 66 65 64 63 60 55 50 49 50 49 43 42 42 42 38 36 35 34 32 34 37 36 31 28 28 27 23 19 13 5 3 4 7 20 31 35 36 46 74 87 94 102 126 142 157 159 160 171 197 232 245 253 257 254 244 243 244 240 223 218 218 218 211 208 211 218 224 229 233 231 231 231 232 235 240 255
30 31 32 31 27 25 23 22 19 19 19 20 20 17 13 10 11 17 28 42 53 58 59 60 64 66 67 66 66 66 64 61 57 52 50 49 48 44 42 42 43 38 36 34 33 31 32 35 38 32 29 28 27 20 14 8 4 4 6 12 26 30 28 26 30 43 54 64 76 98 119 136 136 151 167 185 207 219 231 240 244 241 239 240 240 231 226 223 221 216 215 216 219 227 234 238 233 228 229 234 243 240 241
30 32 32 31 28 23 20 18 17 16 17 19 21 22 20 16 11 11 16 25 36 47 55 61 65 69 70 69 67 66 65 63 59 54 50 48 46 44 43 44 46 40 37 35 33 30 31 33 38 33 30 28 28 22 13 6 4 3 6 13 22 27 28 28 34 33 28 25 37 53 53 52 71 123 152 173 188 201 213 223 233 238 238 238 239 239 236 233 230 225 223 222 219 221 228 232 231 228 224 220 42 5 247
35 36 34 32 29 23 19 18 17 15 16 18 20 21 21 19 17 17 17 20 23 33 42 50 54 61 67 71 69 68 66 63 59 56 53 50 47 43 42 43 46 41 39 37 34 30 29 31 35 32 30 29 30 25 16 9 6 4 6 12 18 19 23 29 39 36 28 18 20 35 29 18 6 33 91 145 172 191 202 211 221 235 240 240 238 241 241 240 238 234 232 230 225 220 222 226 227 228 223 202 59 340 259
45 43 38 34 30 25 20 18 16 15 15 15 19 21 21 21 21 23 24 25 26 32 36 39 39 44 55 65 70 69 67 64 61 58 56 53 49 43 42 42 43 40 39 38 37 32 30 29 30 26 25 27 30 27 21 14 10 8 9 12 16 15 17 21 28 29 30 29 23 34 36 25 356 350 359 29 185 221 211 207 209 228 236 237 233 236 239 239 237 236 235 233 231 226 225 225 224 226 218 201 184 228 242
51 47 42 37 32 26 20 16 13 12 12 12 15 18 19 21 21 21 22 25 30 37 39 37 32 34 39 49 63 68 69 66 63 60 59 56 52 48 45 42 41 37 36 36 37 34 34 33 31 24 20 20 23 23 22 17 12 11 13 15 16 15 15 15 15 15 19 22 20 26 34 33 5 342 336 343 358 277 253 238 223 225 229 229 225 228 230 232 233 234 233 232 231 230 228 224 221 217 210 202 198 208 221
51 49 45 40 35 28 21 15 12 13 13 12 15 16 18 20 22 17 14 14 20 31 34 34 32 32 32 38 50 63 66 66 64 63 61 59 56 53 50 46 44 38 35 34 33 33 34 36 36 30 24 21 19 18 17 16 13 14 16 19 18 18 18 16 13 10 10 9 9 9 16 21 14 345 335 333 334 278 256 256 253 241 237 232 222 222 222 224 228 233 232 229 229 231 230 225 219 213 209 206 205 208 214
50 48 46 41 35 27 21 16 17 17 16 16 18 16 16 18 20 18 12 7 10 20 21 21 25 30 33 38 45 55 61 63 64 62 60 58 58 57 54 51 49 42 38 35 32 30 30 33 36 34 31 28 23 17 14 13 14 16 19 21 20 21 22 21 15 10 7 5 3 0 359 359 359 346 340 334 325 311 288 269 285 300 318 325 304 277 243 226 224 230 230 226 226 231 231 226 219 215 213 213 212 213 216
51 49 45 40 31 24 21 22 25 22 20 18 18 16 13 12 10 11 11 10 14 13 6 2 11 23 35 44 50 53 55 58 60 59 57 56 58 59 59 57 56 50 46 43 36 31 30 30 30 30 31 32 28 19 15 14 15 17 20 21 20 22 23 22 16 10 5 3 0 359 353 345 331 338 351 352 343 335 328 327 343 351 355 358 353 338 327 302 254 240 234 228 223 224 226 225 219 217 218 220 219 221 223
58 56 50 42 26 22 25 30 32 28 23 19 16 18 18 14 4 2 7 13 14 360 347 345 359 16 35 50 54 53 53 53 54 53 51 49 49 52 56 59 61 57 54 50 43 39 36 34 29 27 27 27 26 23 19 17 15 15 16 18 18 20 20 18 13 10 6 3 4 5 358 345 329 345 20 25 10 343 328 325 351 351 1 18 33 7 347 335 332 331 318 287 247 229 223 222 218 218 221 224 225 225 227
63 61 56 45 25 25 28 33 35 33 28 21 13 23 29 28 12 6 5 5 356 338 346 358 6 19 37 52 55 51 50 50 49 48 46 43 39 39 41 49 57 59 59 55 50 46 45 41 34 29 26 23 19 21 20 18 15 11 12 13 10 11 12 9 8 13 14 13 12 12 9 3 353 350 14 37 35 347 315 306 328 343 11 29 32 26 9 345 337 334 330 323 304 274 241 226 220 220 223 226 228 229 230
62 63 60 49 33 31 32 32 31 30 30 26 22 25 22 16 5 79 65 339 304 316 350 10 12 25 43 55 59 52 50 48 47 45 45 42 37 32 28 30 39 50 54 54 50 48 46 44 38 32 27 21 16 15 14 13 10 8 7 6 2 1 2 5 8 13 17 20 20 18 18 18 16 357 354 8 36 338 290 286 304 350 41 49 22 1 6 22 325 324 328 329 324 321 311 269 220 222 226 228 228 230 231
65 63 60 53 41 37 35 32 27 25 27 31 34 20 356 336 343 29 82 16 304 328 15 24 8 29 49 63 71 62 53 47 45 44 42 39 36 32 29 28 28 37 42 44 40 40 42 43 41 34 28 22 16 12 9 4 2 3 3 2 0 2 2 4 6 11 14 17 20 21 23 24 28 14 354 343 349 325 296 292 309 10 68 90 124 255 263 183 120 22 353 338 335 335 330 326 342 290 246 227 222 224 227
69 64 59 53 46 39 37 34 27 23 27 32 38 16 347 329 336 326 190 148 314 342 56 65 31 13 20 39 53 50 44 41 38 39 38 36 35 36 35 34 32 37 40 41 37 37 39 40 42 37 31 26 20 15 7 2 2 2 1 360 2 4 4 3 4 8 9 10 12 17 21 24 29 29 11 344 336 333 321 312 317 17 68 99 129 134 91 12 21 41 2 306 319 340 332 325 331 332 323 285 225 216 219
71 66 60 54 48 40 36 33 28 23 25 27 28 15 1 355 357 351 346 121 64 48 75 89 89 33 8 17 26 32 33 32 30 35 36 36 35 37 37 36 38 44 46 45 41 41 41 42 43 40 36 32 27 21 14 8 8 5 1 359 360 2 4 4 4 6 6 7 9 12 14 16 20 26 30 20 350 340 329 315 311 333 36 83 100 120 101 43 358 352 274 242 225 54 346 318 309 313 313 308 284 234 217
80 75 68 61 53 45 39 33 28 25 23 22 20 14 12 12 14 11 9 10 24 42 51 57 71 31 24 24 26 27 26 24 22 29 33 36 38 39 36 35 39 45 47 46 44 43 44 44 46 43 40 37 33 27 22 19 15 11 7 3 359 1 4 8 9 7 6 7 11 9 10 11 13 16 26 37 21 339 323 312 309 313 327 87 102 116 122 129 157 171 352 356 4 29 340 274 280 300 305 300 288 313 310
89 83 75 66 57 49 42 35 30 26 23 21 20 22 25 25 22 15 11 10 12 17 16 13 8 17 20 21 22 20 14 9 8 19 26 31 36 38 36 34 37 44 46 45 43 42 42 43 43 43 41 38 35 30 26 22 17 16 12 7 3 5 9 12 15 10 7 7 12 11 11 12 12 10 12 18 35 335 316 308 309 310 316 341 79 124 152 153 149 139 104 13 338 316 270 254 262 301 326 323 296 310 330
91 83 74 66 56 47 40 35 30 27 23 22 25 34 40 41 37 30 26 24 22 19 18 18 22 21 21 20 20 14 4 356 360 14 20 22 24 34 37 36 36 41 44 45 42 41 41 41 40 40 40 39 35 31 27 24 22 19 14 10 8 11 13 16 18 12 9 9 12 12 12 10 8 5 5 4 5 345 314 304 309 312 316 320 331 304 202 175 162 170 177 185 197 217 235 252 277 2 5 332 299 306 287
90 83 76 68 57 48 41 35 31 29 27 26 30 44 49 48 47 47 46 46 44 40 33 30 37 34 25 17 8 359 353 354 1 11 14 15 21 31 36 37 35 38 42 44 42 41 41 41 39 38 38 38 35 31 29 27 26 22 17 12 10 12 15 18 20 17 14 11 10 9 7 5 1 4 5 4 358 355 346 326 320 314 314 316 320 312 269 191 179 197 203 204 205 202 204 218 290 352 342 298 304 310 302
90 84 78 70 62 54 47 40 35 35 35 35 37 50 53 51 50 54 56 58 57 59 54 47 50 39 15 353 347 348 356 5 11 6 12 24 32 33 35 36 36 37 40 42 42 39 40 40 39 38 37 37 35 31 28 27 26 24 19 14 11 14 18 22 23 19 14 10 8 6 4 2 2 4 4 1 358 359 360 356 339 318 310 312 322 322 319 294 173 202 220 228 227 224 212 206 217 266 270 274 300 300 302
93 87 79 71 64 59 55 49 41 45 47 46 45 54 58 58 55 55 56 56 54 56 53 51 54 44 6 343 347 355 4 13 17 16 24 31 32 30 32 35 36 36 39 42 43 39 38 38 38 37 36 36 35 31 28 26 25 24 20 16 13 19 23 24 23 19 13 8 5 2 1 3 5 2 360 359 360 359 360 357 341 323 315 319 332 327 324 323 333 327 287 230 223 231 225 212 203 219 231 246 261 272 287
99 92 84 76 65 60 58 55 49 54 58 58 53 57 62 66 63 60 58 56 54 52 49 47 49 46 14 355 357 6 14 19 20 24 30 32 28 26 30 33 32 35 38 41 42 41 38 36 37 36 35 35 35 30 27 25 24 23 20 16 14 22 24 24 23 17 13 9 7 3 1 2 3 1 0 360 358 354 353 350 339 328 327 332 342 329 318 319 329 330 324 308 267 238 218 207 207 219 220 222 232 255 271
101 94 86 76 64 59 58 57 54 59 65 68 63 60 63 69 71 67 65 62 59 54 47 39 35 32 21 9 6 18 23 24 20 25 29 28 22 24 26 28 27 31 34 38 41 42 39 37 36 35 35 35 34 30 27 25 25 23 19 16 15 21 21 19 16 12 11 12 12 8 4 2 1 1 360 357 351 348 345 345 342 337 335 336 338 328 320 321 331 329 326 323 318 308 287 249 224 224 219 215 217 237 256
99 92 83 74 64 57 55 57 60 62 68 71 69 63 64 68 73 71 68 65 65 60 48 34 28 26 21 15 17 25 26 24 19 23 26 25 19 20 21 23 24 25 28 32 37 40 39 37 36 35 35 34 32 29 27 25 24 22 18 15 13 17 16 12 8 6 8 9 10 8 5 2 359 357 355 352 348 344 342 344 348 345 337 331 330 327 324 325 331 324 323 323 319 317 315 306 284 252 227 213 215 223 233
99 92 85 77 68 59 57 60 66 67 69 71 69 65 63 65 70 71 69 67 68 66 56 40 28 25 22 21 27 32 29 23 20 22 25 24 19 18 19 21 21 21 23 25 30 35 37 36 35 34 34 33 32 29 26 24 21 20 17 15 12 14 11 7 6 7 6 5 4 2 359 355 353 351 349 350 351 347 344 344 348 340 331 323 323 322 322 323 326 320 320 320 318 322 322 318 309 302 293 272 250 243 236
102 98 91 84 77 69 64 66 70 72 73 73 72 67 64 64 68 72 74 74 73 71 63 51 38 34 33 34 35 34 30 24 22 23 24 23 17 16 18 18 17 18 21 22 21 28 32 34 33 32 32 32 31 28 25 22 19 17 15 13 11 11 8 7 8 7 5 1 358 355 351 347 347 346 347 349 354 349 345 341 339 331 326 325 330 328 328 328 328 326 322 318 317 320 319 315 310 308 310 311 306 292 280
108 105 99 93 85 73 71 72 74 76 76 76 75 72 68 67 68 75 79 80 79 75 70 61 50 45 45 47 47 40 31 25 25 27 26 22 16 13 13 14 14 18 18 18 19 23 26 28 28 28 28 29 28 25 22 19 17 14 12 10 9 9 8 7 6 5 1 357 353 349 346 344 344 344 344 346 349 346 342 338 333 330 331 335 343 339 336 334 334 332 327 321 317 316 313 310 305 302 304 307 308 299 293
114 110 107 101 89 77 77 81 82 80 79 78 78 74 72 70 71 74 79 82 81 79 76 71 64 59 57 56 56 49 37 29 30 31 28 22 16 11 10 11 14 14 14 15 18 20 21 21 21 21 22 23 22 18 16 14 12 10 8 7 7 6 6 4 2 359 357 354 351 347 344 343 344 343 341 340 340 339 337 336 334 334 336 340 345 342 338 334 334 330 326 320 317 315 313 311 307 305 307 309 308 299 293
119 116 113 110 102 90 87 89 91 87 84 82 80 76 73 72 72 75 79 82 83 82 79 77 73 69 67 66 65 56 46 38 37 35 29 24 19 13 11 12 13 10 10 12 17 17 17 16 14 13 16 18 17 12 10 9 7 6 4 4 4 3 2 359 357 355 353 353 352 348 345 342 340 337 335 334 335 333 334 335 337 336 337 337 340 338 335 331 329 327 323 320 317 315 311 308 307 309 312 313 312 306 301
122 122 120 119 118 114 107 102 100 95 91 89 86 79 76 75 76 79 83 86 86 85 81 76 73 73 73 72 70 61 51 43 43 39 34 28 23 17 15 13 9 8 9 11 10 11 12 12 7 5 8 13 15 11 7 4 2 360 359 359 358 358 358 358 356 353 352 353 353 349 345 340 336 333 332 331 329 327 329 331 332 330 329 327 327 329 328 325 323 320 318 316 314 309 305 303 305 308 310 310 310 307 305
130 128 126 125 128 133 125 114 109 101 97 95 93 86 81 80 82 85 88 90 89 87 81 76 73 74 74 72 69 65 57 47 42 41 37 34 30 21 16 13 9 11 12 10 6 6 6 5 358 356 1 8 12 8 4 360 356 354 352 351 350 354 356 356 353 352 352 352 352 348 343 337 334 332 330 328 325 324 325 326 326 324 320 319 320 320 318 315 315 313 311 309 307 303 301 300 301 303 303 304 304 303 302
135 132 129 129 133 139 133 120 112 105 104 103 99 94 88 83 79 78 82 86 88 85 81 79 79 77 74 68 65 65 60 51 40 35 33 31 31 19 12 10 15 17 15 10 7 3 358 353 348 351 358 4 5 5 3 0 356 352 349 347 348 353 355 354 350 350 350 350 351 348 341 335 330 325 322 321 321 323 326 327 327 324 321 320 321 320 318 315 312 309 307 303 300 298 296 295 294 294 294 296 296 295 295